sat.trackr.live / text

‹ back to catalog

PEARL-1A

NORAD 68990 · 2026-100L

PAYLOAD ACTIVE UNKNOWN

§ Identity

Operator
Country
ROC
Launch date
2026-05-03
Launch site
AFWTR
Launch vehicle
Mass (kg)
RCS (m²)

External: N2YO · Heavens-Above · Gunter

§ Orbital elements

Epoch: 2026-09-20T04:30:40.756608Z

Period
96.57 min
Inclination
97.7175°
Eccentricity
0.0004638
Mean motion
14.91193795 rev/d
Perigee alt
591.0 km
Apogee alt
597.4 km
Semi-major
6,972.3 km
B*
1.3741e-4
RAAN
158.5674°
Arg perigee
193.4290°
Mean anomaly
166.6806°
Rev number
2,085

§ Raw data

PEARL-1A1 68990U 26100L   26263.18797172  .00001310  00000+0  13741-3 0  99952 68990  97.7175 158.5674 0004638 193.4290 166.6806 14.91193795 20852

JSON: /api/v1/satellites/68990 · /tle

For live sub-satellite position, see the globe view (requires WebGL).

§ Visibility from observer

Set your observer location to see the next 7 days of passes ≥ 10°. The values pass through the URL so the page stays shareable.

No JS? Fill the form by hand. The geolocation button needs JavaScript.